DW5686 Weather Reports


Display with metric or nautical units.
time (UTC)temp
F
wind
direction
speed
MPH
gust
MPH
rain 1hr
in
rain 24hr
in
rain mn
in
humidity
%
barometer
mb
20260902005503 82 0 0.0 0.0 0.00 0.00 0.00 69 1017.4
20260902005003 82 0 0.0 0.0 0.00 0.00 0.00 69 1017.3
20260902004524 83 0 0.0 0.0 0.00 0.00 0.00 68 1017.2
20260902004003 83 0 0.0 1.0 0.00 0.00 0.00 68 1017.2
20260902003502 83 356 0.0 2.0 0.00 0.00 0.00 67 1017.1
20260902003002 84 356 1.0 2.0 0.00 0.00 0.00 67 1017.2
20260902002504 83 0 0.0 0.0 0.00 0.00 0.00 65 1017.2
20260902002003 84 0 0.0 0.0 0.00 0.00 0.00 64 1017.2
20260902001504 84 0 0.0 0.0 0.00 0.00 0.00 65 1017.1
20260902001003 84 0 0.0 0.0 0.00 0.00 0.00 64 1017.1
20260902000502 84 0 0.0 0.0 0.00 0.00 0.00 63 1017.1
20260902000003 84 0 0.0 0.0 0.00 0.00 0.00 63 1017.0
20260901235503 85 0 0.0 0.0 0.00 0.00 0.00 63 1017.0
20260901235002 85 0 0.0 0.0 0.00 0.00 0.00 61 1017.0
20260901234504 86 0 0.0 0.0 0.00 0.00 0.00 61 1017.0
20260901234004 86 0 0.0 0.0 0.00 0.00 0.00 61 1017.0
20260901233502 86 0 0.0 0.0 0.00 0.00 0.00 60 1017.1
20260901233003 86 0 0.0 0.0 0.00 0.00 0.00 60 1017.1
20260901232504 86 0 0.0 0.0 0.00 0.00 0.00 59 1017.1
20260901232004 87 0 0.0 0.0 0.00 0.00 0.00 60 1017.1
20260901231503 88 0 0.0 1.0 0.00 0.00 0.00 57 1017.1
20260901231003 88 0 0.0 1.0 0.00 0.00 0.00 56 1017.1
20260901230502 88 356 0.0 1.0 0.00 0.00 0.00 55 1017.1
20260901230023 88 356 0.0 2.0 0.00 0.00 0.00 58 1017.1
20260901225523 89 356 0.0 2.0 0.00 0.00 0.00 56 1017.2
20260901225002 89 0 0.0 4.0 0.00 0.00 0.00 52 1017.1
20260901224503 90 356 1.0 4.0 0.00 0.00 0.00 52 1017.2
20260901224002 90 356 2.0 3.0 0.00 0.00 0.00 52 1017.2
20260901223525 91 356 1.0 2.0 0.00 0.00 0.00 50 1017.3
20260901223004 91 356 0.0 5.0 0.00 0.00 0.00 50 1017.3
20260901222524 91 357 2.0 5.0 0.00 0.00 0.00 48 1017.2
20260901222003 91 3 2.0 5.0 0.00 0.00 0.00 49 1017.2
20260901221503 91 356 0.0 7.0 0.00 0.00 0.00 48 1017.2
20260901221004 91 12 5.0 8.0 0.00 0.00 0.00 48 1017.3
20260901220503 91 353 2.0 8.0 0.00 0.00 0.00 47 1017.3
20260901220004 92 38 1.0 7.0 0.00 0.00 0.00 48 1017.2
20260901215503 92 18 2.0 10.0 0.00 0.00 0.00 48 1017.2
20260901215003 92 16 5.0 10.0 0.00 0.00 0.00 47 1017.2
20260901214503 92 24 1.0 7.0 0.00 0.00 0.00 46 1017.2
20260901214004 92 22 3.0 7.0 0.00 0.00 0.00 45 1017.1
20260901213503 93 32 3.0 6.0 0.00 0.00 0.00 47 1017.2
20260901213003 93 32 2.0 5.0 0.00 0.00 0.00 45 1017.2
20260901212503 93 19 1.0 7.0 0.00 0.00 0.00 43 1017.2
20260901212024 93 13 2.0 7.0 0.00 0.00 0.00 44 1017.2
20260901211503 94 297 1.0 7.0 0.00 0.00 0.00 43 1017.2
20260901211003 94 350 3.0 7.0 0.00 0.00 0.00 41 1017.3
20260901210503 94 31 4.0 7.0 0.00 0.00 0.00 44 1017.1
20260901210002 94 274 1.0 8.0 0.00 0.00 0.00 43 1017.2
20260901205503 94 360 2.0 8.0 0.00 0.00 0.00 41 1017.3
20260901205003 94 18 6.0 8.0 0.00 0.00 0.00 41 1017.3
20260901204502 94 5 4.0 7.0 0.00 0.00 0.00 41 1017.3
20260901204023 95 339 3.0 7.0 0.00 0.00 0.00 41 1017.4
20260901203504 94 19 4.0 9.0 0.00 0.00 0.00 43 1017.4
20260901203003 94 24 4.0 12.0 0.00 0.00 0.00 42 1017.5
20260901202524 94 351 2.0 12.0 0.00 0.00 0.00 41 1017.4
20260901202003 95 8 1.0 10.0 0.00 0.00 0.00 44 1017.3
20260901201502 95 345 3.0 11.0 0.00 0.00 0.00 44 1017.4
20260901201004 95 6 5.0 11.0 0.00 0.00 0.00 46 1017.4
20260901200504 94 8 3.0 7.0 0.00 0.00 0.00 45 1017.4
20260901200002 94 169 2.0 5.0 0.00 0.00 0.00 45 1017.5
20260901195524 94 25 3.0 6.0 0.00 0.00 0.00 44 1017.5
20260901195004 93 351 2.0 6.0 0.00 0.00 0.00 47 1017.7
20260901194502 92 4 1.0 6.0 0.00 0.00 0.00 48 1017.8
20260901194024 91 39 3.0 6.0 0.00 0.00 0.00 45 1017.9
20260901193504 92 354 1.0 6.0 0.00 0.00 0.00 48 1017.9
20260901193003 92 23 3.0 5.0 0.00 0.00 0.00 49 1017.9
20260901192524 92 27 3.0 7.0 0.00 0.00 0.00 46 1018.0
20260901192024 92 20 5.0 8.0 0.00 0.00 0.00 48 1018.1
20260901191504 93 8 4.0 12.0 0.00 0.00 0.00 43 1018.0
20260901191003 94 12 6.0 12.0 0.00 0.00 0.00 43 1018.1
20260901190503 94 344 2.0 10.0 0.00 0.00 0.00 46 1018.1
20260901190002 94 26 5.0 9.0 0.00 0.00 0.00 44 1018.1
20260901185502 95 219 2.0 5.0 0.00 0.00 0.00 45 1018.3
20260901185004 95 196 2.0 5.0 0.00 0.00 0.00 44 1018.3
20260901184503 95 238 2.0 4.0 0.00 0.00 0.00 44 1018.2
20260901184003 94 215 2.0 8.0 0.00 0.00 0.00 45 1018.2
20260901183503 93 358 3.0 12.0 0.00 0.00 0.00 46 1018.4
20260901183004 94 15 7.0 12.0 0.00 0.00 0.00 44 1018.5
20260901182503 93 1 3.0 7.0 0.00 0.00 0.00 46 1018.5
20260901182004 92 340 4.0 7.0 0.00 0.00 0.00 45 1018.5
20260901181503 94 37 2.0 5.0 0.00 0.00 0.00 45 1018.5
20260901181003 94 190 2.0 7.0 0.00 0.00 0.00 46 1018.5
20260901180504 94 191 4.0 9.0 0.00 0.00 0.00 44 1018.6
20260901180002 94 7 2.0 9.0 0.00 0.00 0.00 48 1018.6
20260901175524 94 2 4.0 7.0 0.00 0.00 0.00 47 1018.7
20260901175004 94 300 2.0 5.0 0.00 0.00 0.00 44 1018.7
20260901174503 94 141 2.0 5.0 0.00 0.00 0.00 42 1018.8
20260901174024 94 189 3.0 6.0 0.00 0.00 0.00 42 1018.8
20260901173503 93 223 2.0 6.0 0.00 0.00 0.00 50 1018.9
20260901173024 92 215 3.0 6.0 0.00 0.00 0.00 47 1018.9
20260901172525 91 299 2.0 7.0 0.00 0.00 0.00 52 1019.0
20260901172004 90 9 3.0 8.0 0.00 0.00 0.00 50 1019.0
20260901171504 91 265 1.0 8.0 0.00 0.00 0.00 48 1019.1
20260901171003 92 12 3.0 10.0 0.00 0.00 0.00 49 1019.1
20260901170503 92 17 6.0 10.0 0.00 0.00 0.00 48 1019.1
20260901170002 92 25 3.0 9.0 0.00 0.00 0.00 47 1019.1
20260901165503 92 150 3.0 6.0 0.00 0.00 0.00 51 1019.1
20260901165004 92 318 2.0 6.0 0.00 0.00 0.00 50 1019.3
20260901164524 92 347 1.0 6.0 0.00 0.00 0.00 49 1019.4
20260901164003 92 17 2.0 5.0 0.00 0.00 0.00 49 1019.3
20260901163503 92 9 1.0 3.0 0.00 0.00 0.00 50 1019.5
20260901163004 91 181 1.0 7.0 0.00 0.00 0.00 49 1019.5
20260901162525 91 186 2.0 7.0 0.00 0.00 0.00 52 1019.5
20260901162003 91 203 4.0 7.0 0.00 0.00 0.00 50 1019.6
20260901161503 91 232 2.0 7.0 0.00 0.00 0.00 55 1019.6
20260901161003 90 344 1.0 7.0 0.00 0.00 0.00 56 1019.6
20260901160504 89 33 4.0 9.0 0.00 0.00 0.00 55 1019.6
20260901160003 91 28 3.0 9.0 0.00 0.00 0.00 53 1019.6
20260901155504 91 124 1.0 7.0 0.00 0.00 0.00 50 1019.8
20260901155004 91 180 2.0 7.0 0.00 0.00 0.00 52 1019.7
20260901154503 91 198 3.0 5.0 0.00 0.00 0.00 53 1019.7
20260901154003 92 244 1.0 5.0 0.00 0.00 0.00 55 1019.8
20260901153502 91 244 2.0 5.0 0.00 0.00 0.00 55 1019.9
20260901153002 91 216 0.0 4.0 0.00 0.00 0.00 59 1019.9
20260901152503 90 192 2.0 5.0 0.00 0.00 0.00 57 1019.9
20260901152003 89 190 2.0 6.0 0.00 0.00 0.00 58 1019.9
20260901151503 89 1 1.0 6.0 0.00 0.00 0.00 58 1019.9
20260901151004 88 320 1.0 5.0 0.00 0.00 0.00 58 1020.0
20260901150504 88 342 2.0 6.0 0.00 0.00 0.00 60 1020.0
20260901150003 87 346 2.0 7.0 0.00 0.00 0.00 60 1020.0
20260901145503 86 4 3.0 7.0 0.00 0.00 0.00 61 1020.0
20260901145004 87 13 4.0 7.0 0.00 0.00 0.00 61 1020.0
20260901144503 87 3 1.0 8.0 0.00 0.00 0.00 63 1020.0
20260901144003 87 11 5.0 8.0 0.00 0.00 0.00 61 1020.0
20260901143504 86 184 1.0 4.0 0.00 0.00 0.00 63 1020.1
20260901143003 86 184 2.0 5.0 0.00 0.00 0.00 63 1020.1
20260901142524 86 186 1.0 5.0 0.00 0.00 0.00 65 1020.1
20260901142003 86 260 2.0 5.0 0.00 0.00 0.00 65 1020.1
20260901141504 85 256 2.0 4.0 0.00 0.00 0.00 67 1020.0
20260901141003 85 352 2.0 3.0 0.00 0.00 0.00 70 1019.9
20260901140504 84 352 0.0 3.0 0.00 0.00 0.00 69 1019.9
20260901140025 83 352 1.0 4.0 0.00 0.00 0.00 70 1019.9
20260901135504 83 349 2.0 4.0 0.00 0.00 0.00 70 1019.9
20260901135003 83 306 2.0 5.0 0.00 0.00 0.00 71 1020.0
20260901134503 82 27 1.0 5.0 0.00 0.00 0.00 74 1020.0
20260901134003 81 8 3.0 7.0 0.00 0.00 0.00 75 1019.9
20260901133503 80 359 3.0 7.0 0.00 0.00 0.00 76 1019.8
20260901133003 80 9 2.0 4.0 0.00 0.00 0.00 77 1019.9
20260901132503 80 1 1.0 6.0 0.00 0.00 0.00 76 1020.0
20260901132025 79 5 2.0 6.0 0.00 0.00 0.00 77 1020.0
20260901131503 79 8 1.0 2.0 0.00 0.00 0.00 78 1019.9
20260901131025 78 8 2.0 3.0 0.00 0.00 0.00 81 1020.0
20260901130503 78 7 1.0 3.0 0.00 0.00 0.00 83 1019.9
20260901130003 77 7 2.0 2.0 0.00 0.00 0.00 82 1020.0
20260901125504 77 7 1.0 2.0 0.00 0.00 0.00 83 1019.9
20260901125024 77 7 0.0 2.0 0.00 0.00 0.00 84 1019.9
20260901124504 76 7 1.0 3.0 0.00 0.00 0.00 84 1019.9
20260901124004 76 7 1.0 5.0 0.00 0.00 0.00 86 1019.9
20260901123504 75 8 3.0 5.0 0.00 0.00 0.00 86 1019.9
20260901123003 75 20 1.0 3.0 0.00 0.00 0.00 87 1019.9
20260901122503 74 20 1.0 2.0 0.00 0.00 0.00 89 1019.9
20260901122003 74 0 0.0 1.0 0.00 0.00 0.00 89 1019.8
20260901121525 74 20 0.0 2.0 0.00 0.00 0.00 91 1019.8
20260901121004 73 20 1.0 3.0 0.00 0.00 0.00 91 1019.7
20260901120504 73 137 2.0 3.0 0.00 0.00 0.00 92 1019.7
20260901120004 73 0 0.0 1.0 0.00 0.00 0.00 92 1019.7
20260901115504 72 163 0.0 1.0 0.00 0.00 0.00 92 1019.6
20260901115003 72 163 0.0 1.0 0.00 0.00 0.00 92 1019.5
20260901114503 72 0 0.0 2.0 0.00 0.00 0.00 92 1019.3
20260901114004 72 163 0.0 2.0 0.00 0.00 0.00 92 1019.4
20260901113504 72 163 1.0 2.0 0.00 0.00 0.00 93 1019.3
20260901113003 72 163 0.0 2.0 0.00 0.00 0.00 93 1019.1
20260901112504 72 163 0.0 2.0 0.00 0.00 0.00 93 1019.1
20260901112004 72 163 0.0 2.0 0.00 0.00 0.00 93 1019.0
20260901111504 72 163 0.0 2.0 0.00 0.00 0.00 93 1019.0
20260901111003 72 163 1.0 2.0 0.00 0.00 0.00 92 1018.9
20260901110504 72 163 0.0 1.0 0.00 0.00 0.00 92 1018.9
20260901110003 72 0 0.0 1.0 0.00 0.00 0.00 93 1018.8
20260901105504 72 0 0.0 1.0 0.00 0.00 0.00 93 1018.7
20260901105003 72 163 0.0 2.0 0.00 0.00 0.00 93 1018.6
20260901104504 72 163 0.0 2.0 0.00 0.00 0.00 92 1018.6
20260901104025 72 163 1.0 2.0 0.00 0.00 0.00 92 1018.5
20260901103503 72 0 0.0 1.0 0.00 0.00 0.00 92 1018.5
20260901103004 72 0 0.0 0.0 0.00 0.00 0.00 92 1018.5
20260901102503 72 0 0.0 0.0 0.00 0.00 0.00 92 1018.6
20260901102024 72 0 0.0 1.0 0.00 0.00 0.00 92 1018.6
20260901101524 72 0 0.0 2.0 0.00 0.00 0.00 92 1018.7
20260901101003 72 163 0.0 2.0 0.00 0.00 0.00 92 1018.5
20260901100503 72 0 0.0 2.0 0.00 0.00 0.00 92 1018.6
20260901100004 72 163 0.0 2.0 0.00 0.00 0.00 92 1018.4
20260901095524 72 0 0.0 2.0 0.00 0.00 0.00 92 1018.4
20260901095003 72 163 0.0 5.0 0.00 0.00 0.00 92 1018.4
20260901094503 72 163 1.0 5.0 0.00 0.00 0.00 92 1018.4
20260901094004 72 161 2.0 4.0 0.00 0.00 0.00 92 1018.4
20260901093503 72 161 2.0 3.0 0.00 0.00 0.00 92 1018.5
20260901093003 72 161 0.0 1.0 0.00 0.00 0.00 92 1018.5
20260901092524 72 161 0.0 1.0 0.00 0.00 0.00 92 1018.5
20260901092003 72 0 0.0 0.0 0.00 0.00 0.00 92 1018.7
20260901091504 72 0 0.0 0.0 0.00 0.00 0.00 92 1018.6
20260901091004 72 0 0.0 0.0 0.00 0.00 0.00 92 1018.6
20260901090503 72 0 0.0 0.0 0.00 0.00 0.00 92 1018.6
20260901090025 72 0 0.0 0.0 0.00 0.00 0.00 92 1018.5
20260901085525 73 0 0.0 0.0 0.00 0.00 0.00 92 1018.5
20260901085025 73 0 0.0 2.0 0.00 0.00 0.00 92 1018.5
20260901084504 73 161 1.0 2.0 0.00 0.00 0.00 92 1018.6
20260901084003 73 161 1.0 2.0 0.00 0.00 0.00 92 1018.7
20260901083503 73 161 2.0 2.0 0.00 0.00 0.00 92 1018.7
20260901083003 73 161 1.0 2.0 0.00 0.00 0.00 92 1018.8
20260901082524 73 161 0.0 2.0 0.00 0.00 0.00 92 1018.8
20260901082004 73 161 1.0 2.0 0.00 0.00 0.00 92 1018.8
20260901081503 73 161 1.0 2.0 0.00 0.00 0.00 92 1018.9
20260901081003 73 0 0.0 0.0 0.00 0.00 0.00 92 1018.9
20260901080504 73 0 0.0 0.0 0.00 0.00 0.00 92 1018.8
20260901080024 73 0 0.0 0.0 0.00 0.00 0.00 92 1018.8
20260901075503 73 0 0.0 1.0 0.00 0.00 0.00 92 1018.7
20260901075004 73 161 0.0 1.0 0.00 0.00 0.00 92 1018.9
20260901074504 73 0 0.0 1.0 0.00 0.00 0.00 92 1018.9
20260901074003 74 161 0.0 2.0 0.00 0.00 0.00 91 1018.8
20260901073504 74 161 1.0 2.0 0.00 0.00 0.00 92 1018.8
20260901073004 74 0 0.0 1.0 0.00 0.00 0.00 92 1018.8
20260901072504 74 0 0.0 1.0 0.00 0.00 0.00 91 1018.9
20260901072003 74 0 0.0 0.0 0.00 0.00 0.00 91 1019.0
20260901071502 74 0 0.0 0.0 0.00 0.00 0.00 91 1019.0
20260901071002 74 0 0.0 2.0 0.00 0.00 0.00 91 1019.0
20260901070524 74 0 0.0 2.0 0.00 0.00 0.00 91 1019.0
20260901070002 74 0 0.0 1.0 0.00 0.00 0.00 91 1019.2
20260901065503 74 161 0.0 1.0 0.00 0.00 0.00 89 1019.1
20260901065002 74 0 0.0 0.0 0.00 0.00 0.00 89 1019.1
20260901064502 74 0 0.0 2.0 0.00 0.00 0.00 89 1019.1
20260901064003 74 161 1.0 3.0 0.00 0.00 0.00 89 1019.1
20260901063523 74 161 1.0 3.0 0.00 0.00 0.00 89 1019.2
20260901063003 74 161 2.0 3.0 0.00 0.00 0.00 89 1019.1
20260901062503 74 161 2.0 2.0 0.00 0.00 0.00 89 1019.1
20260901062003 74 0 0.0 1.0 0.00 0.00 0.00 91 1019.0
20260901061503 74 0 0.0 0.0 0.00 0.00 0.00 89 1019.1
20260901061023 74 0 0.0 0.0 0.00 0.00 0.00 89 1019.0
20260901060503 74 0 0.0 0.0 0.00 0.00 0.00 89 1019.2
20260901060002 74 0 0.0 1.0 0.00 0.00 0.00 89 1019.1
20260901055503 74 161 0.0 1.0 0.00 0.00 0.00 89 1019.2
20260901055002 74 0 0.0 0.0 0.00 0.00 0.00 89 1019.3
20260901054502 74 0 0.0 0.0 0.00 0.00 0.00 88 1019.2
20260901054023 75 0 0.0 0.0 0.00 0.00 0.00 88 1019.2
20260901053503 75 0 0.0 0.0 0.00 0.00 0.00 88 1019.2
20260901053002 75 0 0.0 2.0 0.00 0.00 0.00 88 1019.3
20260901052502 75 161 0.0 2.0 0.00 0.00 0.00 87 1019.3
20260901052002 75 161 2.0 2.0 0.00 0.00 0.00 87 1019.2
20260901051503 75 161 0.0 2.0 0.00 0.00 0.00 87 1019.2
20260901051003 75 161 1.0 2.0 0.00 0.00 0.00 87 1019.3
20260901050502 75 0 0.0 0.0 0.00 0.00 0.00 87 1019.3
20260901050023 75 0 0.0 0.0 0.00 0.00 0.00 87 1019.4
20260901045502 75 0 0.0 1.0 0.00 0.00 0.00 87 1019.4
20260901045003 76 0 0.0 2.0 0.00 0.00 0.00 86 1019.4
20260901044502 76 161 0.0 2.0 0.00 0.00 0.00 86 1019.4
20260901044024 76 161 1.0 3.0 0.00 0.00 0.00 86 1019.3
20260901043502 76 161 1.0 3.0 0.00 0.00 0.00 86 1019.3
20260901043002 76 161 1.0 2.0 0.00 0.00 0.00 86 1019.2
20260901042502 76 0 0.0 1.0 0.00 0.00 0.00 86 1019.2
20260901042002 76 0 0.0 2.0 0.00 0.00 0.00 86 1019.1
20260901041524 76 161 1.0 2.0 0.00 0.00 0.00 84 1019.2
20260901041002 76 161 0.0 2.0 0.00 0.00 0.00 84 1019.1
20260901040502 76 161 1.0 2.0 0.00 0.00 0.00 84 1019.1
20260901040003 76 161 0.0 2.0 0.00 0.00 0.00 84 1019.1
20260901035504 76 161 2.0 2.0 0.00 0.00 0.00 84 1019.1
20260901035003 76 0 0.0 0.0 0.00 0.00 0.00 84 1019.1
20260901034503 76 0 0.0 0.0 0.00 0.00 0.00 84 1019.2
20260901034004 76 0 0.0 0.0 0.00 0.00 0.00 84 1019.3
20260901033502 77 0 0.0 0.0 0.00 0.00 0.00 84 1019.3
20260901033002 77 0 0.0 1.0 0.00 0.00 0.00 83 1019.2
20260901032503 77 161 0.0 1.0 0.00 0.00 0.00 83 1019.2
20260901032002 77 161 0.0 1.0 0.00 0.00 0.00 83 1019.2
20260901031503 77 161 0.0 3.0 0.00 0.00 0.00 83 1019.1
20260901031003 77 161 1.0 3.0 0.00 0.00 0.00 82 1019.1
20260901030502 77 0 0.0 1.0 0.00 0.00 0.00 82 1019.0
20260901030003 78 161 0.0 1.0 0.00 0.00 0.00 81 1019.2
20260901025504 78 0 0.0 3.0 0.00 0.00 0.00 81 1019.3
20260901025023 78 161 0.0 5.0 0.00 0.00 0.00 81 1019.3
20260901024503 78 162 2.0 5.0 0.00 0.00 0.00 81 1019.4
20260901024002 78 166 1.0 2.0 0.00 0.00 0.00 79 1019.5
20260901023503 78 0 0.0 0.0 0.00 0.00 0.00 79 1019.4
20260901023024 78 0 0.0 0.0 0.00 0.00 0.00 79 1019.4
20260901022502 78 0 0.0 1.0 0.00 0.00 0.00 78 1019.4
20260901022003 79 166 0.0 1.0 0.00 0.00 0.00 78 1019.3
20260901021503 79 0 0.0 2.0 0.00 0.00 0.00 78 1019.3
20260901021003 79 166 1.0 2.0 0.00 0.00 0.00 77 1019.3
20260901020523 79 166 2.0 2.0 0.00 0.00 0.00 77 1019.2
20260901020002 79 166 0.0 1.0 0.00 0.00 0.00 77 1019.1
20260901015502 79 0 0.0 1.0 0.00 0.00 0.00 77 1019.0
20260901015003 78 0 0.0 1.0 0.00 0.00 0.00 77 1019.0
20260901014502 78 166 0.0 1.0 0.00 0.00 0.00 76 1018.8
20260901014023 78 0 0.0 1.0 0.00 0.00 0.00 77 1018.7
20260901013503 79 0 0.0 0.0 0.00 0.00 0.00 76 1018.7
20260901013002 79 0 0.0 1.0 0.00 0.00 0.00 76 1018.7
20260901012504 79 0 0.0 1.0 0.00 0.00 0.00 75 1018.5
20260901012002 79 166 0.0 1.0 0.00 0.00 0.00 75 1018.5
20260901011502 79 0 0.0 0.0 0.00 0.00 0.00 74 1018.5
20260901011003 79 0 0.0 0.0 0.00 0.00 0.00 74 1018.4
20260901010503 79 0 0.0 1.0 0.00 0.00 0.00 72 1018.4
20260901010003 80 0 0.0 1.0 0.00 0.00 0.00 71 1018.3